Simultaneous Nadir Overpasses (SNOs) Predictions

Prediction of SNOs between NOAA-19 and METOP-C Satellite Orbit:

Table of predicted SNOs for the next 14.0 days since TLE Epoch: 2/7/2020
Index Date (NOAA-19) Time (NOAA-19) Lat,Lon (NOAA-19) SZA (NOAA-19 ) Date (METOP-C) Time (METOP-C) Lat,Lon (METOP-C) SZA (METOP-C ) Distance(km) Time Diff (sec)
1 02/16/2020 03:52:14 -79.91, -39.17 87.26 02/16/2020 03:53:24 -79.86, -37.00 87.19 42.66 70
2 02/16/2020 04:43:07 79.78, 129.63 92.68 02/16/2020 04:44:06 79.79, 129.61 92.69 0.43 59
3 02/16/2020 05:34:09 -79.77, -62.95 87.35 02/16/2020 05:34:48 -79.78, -63.08 87.33 3.03 39
4 02/16/2020 06:25:08 79.79, 104.03 92.66 02/16/2020 06:25:28 79.77, 104.11 92.64 3.16 20
5 02/16/2020 07:16:10 -79.78, -88.55 87.37 02/16/2020 07:16:10 -79.77, -88.59 87.38 1.42 0
6 02/16/2020 08:07:08 79.78, 78.73 92.63 02/16/2020 08:06:49 79.78, 78.89 92.64 3.20 19
7 02/16/2020 08:58:09 -79.76,-113.85 87.40 02/16/2020 08:57:30 -79.78,-113.80 87.38 2.36 39
8 02/16/2020 09:49:07 79.76, 53.43 92.60 02/16/2020 09:48:10 79.76, 53.38 92.59 1.05 57




NCC Satellite Simultaneous Nadir Overpasses (SNOs) Prediction Service
